Regional Weather Roundup
Issued by NWS

Home | Current Version | Previous Version | Text Only | Print | Product List | Glossary Off
Versions: 1 2 3 4 5 6 7 8 9 10 11 12 13 14 15 16 17 18 19 20 21 22 23 24 25 26 27 28 29 30 31 32 33 34 35 36 37 38 39 40 41 42 43 44 45 46 47 48 49 50

000
ASUS45 KPSR 181300
RWRAZ

PRELIMINARY ARIZONA REGIONAL HOURLY WEATHER ROUNDUP
NATIONAL WEATHER SERVICE PHOENIX AZ
600 AM MST THU DEC 18 2014

NOTE: FAIR INDICATES FEW OR NO CLOUDS BELOW 12,000 FEET WITH NO
SIGNIFICANT WEATHER AND/OR OBSTRUCTIONS TO VISIBILITY.

AZZ001>003-036-181400-
NORTHWEST ARIZONA

CITY           SKY/WX    TMP DP  RH WIND       PRES   REMARKS
KINGMAN        CLOUDY    41  36  82 CALM      30.10R
$$

AZZ004>008-015-016-018-181400-
NORTH CENTRAL ARIZONA

CITY           SKY/WX    TMP DP  RH WIND       PRES   REMARKS
PRESCOTT       CLOUDY    35  30  82 CALM      30.09F
FLAGSTAFF      CLOUDY    29  27  92 CALM      30.07R
PAYSON         CLOUDY    36  34  93 CALM      30.11S
PAGE           CLOUDY    37  33  85 CALM      30.10R FOG
$$

AZZ009>014-017-181400-
NORTHEAST ARIZONA

CITY           SKY/WX    TMP DP  RH WIND       PRES   REMARKS
WINSLOW        NOT AVBL
WINDOW ROCK    CLOUDY    31  27  85 CALM      30.10S
SHOW LOW       MOCLDY    30  27  86 S9        30.11S WCI  22
$$

AZZ023-181400-
GREATER PHOENIX AREA

CITY           SKY/WX    TMP DP  RH WIND       PRES   REMARKS
PHOENIX        CLOUDY    52  48  86 CALM      30.08S
BUCKEYE        CLOUDY    46  46 100 N5        30.09S
GLENDALE       CLOUDY    50  50 100 NW3       30.10
LUKE AFB       CLOUDY    48 N/A N/A N7        30.08S
DEER VALLEY    CLOUDY    49  45  86 N6        30.08S
SCOTTSDALE     CLOUDY    50  46  86 CALM      30.09S
MESA-GATEWAY   MOCLDY    48  46  93 NE5       30.10S
CHANDLER       MOCLDY    48  48 100 E3        30.09
$$

AZZ027-028-181400-
SOUTHWEST MARICOPA COUNTY AND PINAL COUNTY

CITY           SKY/WX    TMP DP  RH WIND       PRES   REMARKS
CASA GRANDE    NOT AVBL
GILA BEND      PTSUNNY   47  46  98 NE3       30.10R
$$

AZZ503-504-507>509-181400-
SOUTHEAST ARIZONA

CITY           SKY/WX    TMP DP  RH WIND       PRES   REMARKS
TUCSON         CLOUDY    48  46  93 SE5       30.12R
DAVIS-MONTHAN  CLOUDY    47  47 100 SE5       30.09F
RYAN FIELD       N/A     48  48 100 CALM      30.11
NOGALES        CLOUDY    46  44  93 CALM      30.10S
SIERRA VISTA   PTCLDY    43  41  93 CALM      30.11S
SAFFORD        PTCLDY    42  41  96 E3        30.12S
$$

AZZ020-021-025-026-031-181400-
SOUTHWEST ARIZONA

CITY           SKY/WX    TMP DP  RH WIND       PRES   REMARKS
YUMA           NOT AVBL
$$

CAZ031-033-041-043-047-048-061-181400-
SOUTHERN CALIFORNIA

CITY           SKY/WX    TMP DP  RH WIND       PRES   REMARKS
DOWNTOWN L.A.  CLEAR     48  44  86 CALM      30.12S
L.A. AIRPORT   PTCLDY    50  44  80 CALM      30.13R
SAN DIEGO      MOCLDY    55  45  68 E5        30.16R
BURBANK        PTCLDY    45  41  86 CALM      30.12R
ONTARIO        MOCLDY    49  44  83 CALM      30.12S
RIVERSIDE      MOCLDY    46  43  89 CALM      30.13S
PALM SPRINGS   CLEAR     50  44  80 NW6       30.12R
EL CENTRO NAS  CLEAR     46  40  79 W5        30.10R
IMPERIAL       CLEAR     46  40  79 SW3       30.10R
BLYTHE         MOCLDY    52  50  93 SE3       30.10R
$$

NVZ020-UTZ003-181400-
SOUTHERN NEVADA-UTAH

CITY           SKY/WX    TMP DP  RH WIND       PRES   REMARKS
LAS VEGAS      NOT AVBL
SALT LAKE CITY MOCLDY    31  28  89 NE6       30.09R WCI  25
$$

NMZ009-TXZ055-181400-
NEW MEXICO-WEST TEXAS

CITY           SKY/WX    TMP DP  RH WIND       PRES   REMARKS
ALBUQUERQUE    CLEAR     31  27  85 S3        30.13R
EL PASO        PTCLDY    37  32  82 E5        30.13R WCI  33
$$


........................KEY........................
SKY/WX - SKY CONDITION/WEATHER
TMP    - TEMPERATURE IN FAHRENHEIT
DP     - DEW POINT IN FAHRENHEIT
RH     - RELATIVE HUMIDITY IN PERCENT
WIND   - DIRECTION AND SPEED IN MILES PER HOUR (MPH)
VRB    - VARIABLE WIND DIRECTION
PRES   - MEAN SEA LEVEL PRESSURE IN INCHES OF MERCURY
         F - FALLING PRESSURE   R - RISING PRESSURE
         S - STEADY PRESSURE
VSB    - VISIBILITY IN MILES
HX     - HEAT INDEX IN FAHRENHEIT
WCI    - WIND CHILL INDEX IN FAHRENHEIT
TC     - TEMPERATURE IN CELSIUS WHICH IS ALSO KNOWN AS
         TEMPERATURE IN CENTIGRADE
AFB    - AIR FORCE BASE
         LUKE AFB IS LUKE AIR FORCE BASE
         DAVIS-MONTHAN IS DAVIS-MONTHAN AIR FORCE BASE
NAS    - NAVAL AIR STATION
         EL CENTRO NAS IS EL CENTRO NAVAL AIR STATION
N/A    - NOT AVAILABLE


USA.gov is the U.S. government's official web portal to all federal, state and local government web resources and services.